Date Time,Air Temp,Sky Temp,Clarity,Light Level,Rain Sensor,Readings
2011-08-10 00:00:23,23.8,-7.6,31.4,0.1,2.3,111
2011-08-10 00:05:23,23.8,-7.6,31.4,0.1,2.3,111
2011-08-10 00:10:23,23.8,-7.7,31.5,0.1,2.3,110
2011-08-10 00:15:23,23.9,-7.6,31.5,0.1,2.3,112
2011-08-10 00:20:23,23.9,-7.7,31.6,0.1,2.3,111
2011-08-10 00:25:23,23.9,-7.7,31.5,0.1,2.3,111
2011-08-10 00:30:23,23.9,-7.6,31.5,0.2,2.3,111
2011-08-10 00:35:23,23.8,-7.6,31.4,0.1,2.3,112
2011-08-10 00:40:23,23.7,-7.7,31.5,0.1,2.3,111
2011-08-10 00:45:23,23.6,-7.7,31.3,0.1,2.2,111
2011-08-10 00:50:23,23.5,-7.7,31.2,0.1,2.1,111
2011-08-10 00:55:23,23.5,-7.8,31.3,0.1,2.2,111
2011-08-10 01:00:23,23.5,-7.8,31.3,0.1,2.3,112
2011-08-10 01:05:23,23.5,-7.8,31.3,0.1,2.3,111
2011-08-10 01:10:23,23.5,-8.0,31.5,0.1,2.3,112
2011-08-10 01:15:23,23.4,-8.0,31.4,0.1,2.3,112
2011-08-10 01:20:23,23.4,-8.0,31.5,0.0,2.3,112
2011-08-10 01:25:23,23.4,-7.9,31.3,0.0,2.3,111
2011-08-10 01:30:23,23.4,-7.9,31.3,0.0,2.3,112
2011-08-10 01:35:23,23.4,-7.2,30.6,0.0,2.3,111
2011-08-10 01:40:23,23.4,-6.6,29.9,0.0,2.3,111
2011-08-10 01:45:23,23.4,-6.0,29.4,0.0,2.3,112
2011-08-10 01:50:23,23.4,-5.2,28.6,0.0,2.3,112
2011-08-10 01:55:23,23.4,-3.5,26.9,0.0,2.3,111
2011-08-10 02:00:23,23.2,-3.7,26.9,0.0,2.3,112
2011-08-10 02:05:23,23.0,-2.9,25.9,0.0,2.3,112
2011-08-10 02:10:23,22.9,-2.7,25.6,0.0,2.3,111
2011-08-10 02:15:23,22.9,-2.7,25.6,0.0,2.3,112
2011-08-10 02:20:23,23.0,-1.7,24.7,0.0,2.3,112
2011-08-10 02:25:23,23.1,-0.1,23.2,0.0,2.3,111
2011-08-10 02:30:23,23.4,1.0,22.4,0.0,2.3,111
2011-08-10 02:35:23,23.6,-1.7,25.3,0.0,2.3,112
2011-08-10 02:40:23,23.6,-2.4,26.0,0.0,2.3,111
2011-08-10 02:45:23,23.4,0.5,23.0,0.0,2.3,112
2011-08-10 02:50:23,22.2,3.0,19.2,0.0,2.3,111
2011-08-10 02:55:23,19.8,3.0,16.8,0.0,2.3,112
2011-08-10 03:00:23,19.2,2.7,16.5,0.0,2.3,111
2011-08-10 03:05:23,18.9,4.0,14.9,0.0,2.7,112
2011-08-10 03:10:23,18.6,2.2,16.4,0.0,2.6,112
2011-08-10 03:15:23,19.2,-1.7,20.9,0.0,2.4,111
2011-08-10 03:20:23,21.7,-2.2,24.0,0.0,2.3,112
2011-08-10 03:25:23,22.4,-4.5,26.9,0.0,2.3,111
2011-08-10 03:30:23,22.6,-6.3,28.9,0.0,2.3,112
2011-08-10 03:35:23,22.6,-6.4,28.9,0.0,2.3,112
2011-08-10 03:40:23,22.5,-6.4,28.9,0.0,2.3,112
2011-08-10 03:45:23,22.4,-6.2,28.6,0.0,2.3,112
2011-08-10 03:50:23,22.4,-6.4,28.8,0.0,2.3,112
2011-08-10 03:55:23,22.4,-6.1,28.5,0.0,2.3,112
2011-08-10 04:00:23,22.4,-6.0,28.3,0.0,2.3,112
2011-08-10 04:05:23,22.0,-5.8,27.8,0.0,2.2,111
2011-08-10 04:10:23,22.4,-5.9,28.3,0.0,2.2,112
2011-08-10 04:15:23,22.4,-6.4,28.8,0.0,2.3,112
2011-08-10 04:20:23,22.4,-6.6,29.0,0.0,2.3,112
2011-08-10 04:25:23,22.3,-6.1,28.4,0.1,2.3,111
2011-08-10 04:30:23,22.3,-6.0,28.2,0.1,2.3,112
2011-08-10 04:35:23,22.2,-7.0,29.2,0.2,2.3,111
2011-08-10 04:40:23,22.2,-7.3,29.5,0.3,2.3,112
2011-08-10 04:45:23,22.2,-7.4,29.7,0.4,2.3,111
2011-08-10 04:50:23,22.3,-6.9,29.2,0.7,2.3,112
2011-08-10 04:55:23,22.3,-6.5,28.8,1.2,2.3,112
2011-08-10 05:00:23,22.4,-5.8,28.1,2.1,2.3,112
2011-08-10 05:05:23,22.4,-6.1,28.6,3.9,2.3,111
2011-08-10 05:10:23,22.5,-6.8,29.3,6.8,2.3,112
2011-08-10 05:15:23,22.5,-6.6,29.1,11.0,2.3,112
2011-08-10 05:20:23,22.3,-5.0,27.4,16.0,2.3,111
2011-08-10 05:25:23,22.3,-3.6,25.9,20.9,2.3,112
2011-08-10 05:30:23,22.4,-3.3,25.7,24.9,2.3,112
2011-08-10 05:35:23,22.6,-4.7,27.3,27.6,2.3,112
2011-08-10 05:40:23,22.7,-5.1,27.8,29.1,2.3,110
2011-08-10 05:45:23,22.7,-5.9,28.6,30.1,2.3,112
2011-08-10 05:50:23,22.7,-6.6,29.2,30.8,2.3,112
2011-08-10 05:55:23,22.7,-6.3,29.0,31.3,2.3,112
2011-08-10 06:00:24,22.9,-5.5,28.4,31.6,2.3,111
2011-08-10 06:05:24,23.1,-4.2,27.3,31.7,2.3,112
2011-08-10 06:10:24,23.2,-3.4,26.6,31.9,2.3,112
2011-08-10 06:15:24,23.2,-3.4,26.5,32.0,2.3,111
2011-08-10 06:20:24,23.1,-0.7,23.8,32.1,2.3,112
2011-08-10 06:25:24,23.2,0.7,22.5,32.2,2.4,111
2011-08-10 06:30:24,23.3,-0.4,23.7,32.2,2.3,111
2011-08-10 06:35:24,23.5,-2.8,26.3,32.2,2.3,112
2011-08-10 06:40:24,23.5,-1.3,24.7,32.2,2.3,111
2011-08-10 06:45:24,23.2,2.6,20.6,32.2,2.3,111
2011-08-10 06:50:24,20.7,4.5,16.2,32.3,2.3,112
2011-08-10 06:55:24,19.4,4.8,14.6,32.3,2.3,112
2011-08-10 07:00:24,19.3,4.6,14.7,32.3,2.3,111
2011-08-10 07:05:24,19.3,4.2,15.1,32.3,2.3,112
2011-08-10 07:10:24,19.5,4.5,15.0,32.3,2.3,112
2011-08-10 07:15:24,19.6,4.3,15.3,32.3,2.3,111
2011-08-10 07:20:24,19.5,4.5,15.0,32.3,2.3,112
2011-08-10 07:25:24,19.4,5.4,14.1,32.4,2.3,112
2011-08-10 07:30:24,19.6,5.3,14.3,32.4,2.3,112
2011-08-10 07:35:24,19.8,4.6,15.2,32.4,2.3,112
2011-08-10 07:40:24,19.9,4.7,15.2,32.4,2.3,111
2011-08-10 07:45:24,20.1,3.3,16.8,32.4,2.3,111
2011-08-10 07:50:24,20.2,3.8,16.4,32.4,2.3,112
2011-08-10 07:55:24,20.1,5.7,14.4,32.4,2.3,112
2011-08-10 08:00:24,20.2,6.1,14.1,32.5,2.3,111
2011-08-10 08:05:24,20.3,2.8,17.5,32.4,2.3,112
2011-08-10 08:10:24,22.3,-0.8,23.1,32.4,2.3,111
2011-08-10 08:15:24,24.1,1.4,22.7,32.5,2.3,111
2011-08-10 08:20:24,24.9,2.7,22.2,32.5,2.3,112
2011-08-10 08:25:24,25.3,4.2,21.1,32.5,2.3,112
2011-08-10 08:30:24,25.5,1.9,23.6,32.5,2.3,111
2011-08-10 08:35:24,25.6,-2.4,28.0,32.4,2.3,112
2011-08-10 08:40:24,25.4,-4.4,29.9,32.4,2.3,111
2011-08-10 08:45:24,25.3,-4.0,29.2,32.4,2.3,112
2011-08-10 08:50:24,25.3,-3.1,28.4,32.4,2.3,112
2011-08-10 08:55:24,25.5,-2.8,28.3,32.4,2.3,112
2011-08-10 09:00:24,25.7,-2.8,28.5,32.4,2.2,112
2011-08-10 09:05:24,25.9,-3.1,29.0,32.5,2.2,112
2011-08-10 09:10:24,26.2,-0.8,27.0,32.5,2.3,112
2011-08-10 09:15:24,26.5,3.5,23.0,32.5,2.3,111
2011-08-10 09:20:24,27.1,4.5,22.5,32.5,2.3,112
2011-08-10 09:25:24,27.4,3.9,23.5,32.5,2.3,111
2011-08-10 09:30:24,27.5,3.4,24.1,32.5,2.3,111
2011-08-10 09:35:24,27.3,2.7,24.6,32.5,2.3,111
2011-08-10 09:40:24,27.2,-0.6,27.8,32.5,2.3,112
2011-08-10 09:45:24,27.2,-3.0,30.2,32.5,2.3,112
2011-08-10 09:50:24,27.6,-2.1,29.7,32.5,2.3,112
2011-08-10 09:55:24,28.1,-2.3,30.4,32.5,2.3,112
2011-08-10 10:00:24,28.5,-2.0,30.5,32.5,2.3,111
2011-08-10 10:05:24,28.6,-2.6,31.2,32.5,2.3,112
2011-08-10 10:10:24,28.7,-2.4,31.1,32.5,2.3,112
2011-08-10 10:15:24,28.9,-2.4,31.3,32.5,2.3,112
2011-08-10 10:20:24,29.1,-2.1,31.2,32.5,2.3,111
2011-08-10 10:25:24,29.3,3.1,26.2,32.6,2.3,112
2011-08-10 10:30:24,29.5,4.9,24.6,32.6,2.3,112
2011-08-10 10:35:24,29.1,5.7,23.4,32.6,2.3,111
2011-08-10 10:40:24,28.8,6.3,22.5,32.6,2.3,111
2011-08-10 10:45:24,28.7,5.0,23.7,32.6,2.3,112
2011-08-10 10:50:24,28.8,4.7,24.0,32.6,2.3,112
2011-08-10 10:55:24,29.2,6.0,23.2,32.6,2.3,111
2011-08-10 11:00:24,29.4,4.3,25.1,32.6,2.3,112
2011-08-10 11:05:24,29.3,2.7,26.6,32.6,2.3,111
2011-08-10 11:10:24,29.5,5.7,23.8,32.6,2.3,112
2011-08-10 11:15:24,30.4,6.5,24.0,32.6,2.3,111
2011-08-10 11:20:24,31.0,6.5,24.5,32.6,2.3,111
2011-08-10 11:25:24,30.9,4.7,26.2,32.6,2.3,112
2011-08-10 11:30:24,30.7,4.4,26.2,32.6,2.3,111
2011-08-10 11:35:24,30.7,5.6,25.2,32.6,2.3,112
2011-08-10 11:40:24,31.0,4.8,26.2,32.6,2.3,111
2011-08-10 11:45:24,30.4,4.1,26.4,32.6,2.3,112
2011-08-10 11:50:24,29.7,3.4,26.3,32.6,2.3,111
2011-08-10 11:55:24,29.3,3.1,26.2,32.6,2.3,111
2011-08-10 12:00:24,29.5,3.8,25.8,32.6,2.3,112
2011-08-10 12:05:24,29.9,3.2,26.7,32.6,2.3,111
2011-08-10 12:10:24,30.2,3.9,26.2,32.6,2.3,111
2011-08-10 12:15:24,30.2,4.9,25.3,32.6,2.3,112
2011-08-10 12:20:24,29.9,5.4,24.4,32.6,2.3,111
2011-08-10 12:25:24,29.8,5.5,24.3,32.6,2.3,112
2011-08-10 12:30:24,30.1,2.5,27.6,32.6,2.3,111
2011-08-10 12:35:24,30.0,0.1,29.8,32.6,2.3,111
2011-08-10 12:40:24,29.4,1.4,28.0,32.6,2.3,112
2011-08-10 12:45:24,29.3,3.2,26.0,32.6,2.3,111
2011-08-10 12:50:24,30.4,5.6,24.8,32.6,2.3,111
2011-08-10 12:55:24,31.4,5.1,26.3,32.6,2.3,112
2011-08-10 13:00:24,32.0,6.0,26.0,32.6,1.9,111
2011-08-10 13:05:24,32.4,5.6,26.7,32.6,1.4,112
2011-08-10 13:10:24,32.6,5.2,27.4,32.6,1.4,111
2011-08-10 13:15:24,32.9,3.4,29.5,32.6,1.1,112
2011-08-10 13:20:24,32.7,3.2,29.5,32.6,1.2,111
2011-08-10 13:25:24,32.5,4.4,28.0,32.6,1.4,111
2011-08-10 13:30:24,32.4,2.8,29.6,32.6,1.3,112
2011-08-10 13:35:24,32.4,3.4,29.0,32.6,1.2,111
2011-08-10 13:40:24,32.4,3.3,29.0,32.6,1.3,111
2011-08-10 13:45:24,31.6,2.7,28.9,32.6,1.4,111
2011-08-10 13:50:24,32.0,2.9,29.1,32.6,1.3,111
2011-08-10 13:55:24,31.9,3.5,28.4,32.6,1.1,111
2011-08-10 14:00:24,32.0,2.6,29.3,32.6,1.2,112
2011-08-10 14:05:24,31.8,3.8,28.0,32.6,1.8,111
2011-08-10 14:10:24,32.1,3.7,28.3,32.6,1.5,112
2011-08-10 14:15:24,32.2,2.8,29.4,32.6,1.5,110
2011-08-10 14:20:24,32.1,2.9,29.2,32.6,1.5,112
2011-08-10 14:25:24,32.1,3.7,28.4,32.6,1.4,111
2011-08-10 14:30:24,32.1,3.2,28.8,32.6,1.6,111
2011-08-10 14:35:24,32.1,3.4,28.7,32.6,1.6,112
2011-08-10 14:40:24,32.0,3.0,29.0,32.6,1.6,111
2011-08-10 14:45:24,31.9,3.3,28.6,32.6,1.3,112
2011-08-10 14:50:24,31.8,3.1,28.7,32.6,1.3,111
2011-08-10 14:55:24,31.7,3.3,28.4,32.6,1.6,111
2011-08-10 15:00:24,31.8,3.7,28.1,32.6,1.3,112
2011-08-10 15:05:24,31.8,3.5,28.4,32.6,1.1,111
2011-08-10 15:10:24,31.6,2.6,29.0,32.6,1.4,112
2011-08-10 15:15:24,30.5,4.0,26.6,32.6,1.7,111
2011-08-10 15:20:24,30.8,4.2,26.6,32.6,1.8,112
2011-08-10 15:25:24,31.5,4.2,27.3,32.6,1.1,111
2011-08-10 15:30:24,31.6,4.0,27.6,32.6,1.9,111
2011-08-10 15:35:24,31.8,4.5,27.3,32.6,1.7,112
2011-08-10 15:40:24,31.8,3.7,28.0,32.6,1.1,111
2011-08-10 15:45:24,31.8,4.2,27.5,32.6,1.2,112
2011-08-10 15:50:24,31.6,3.6,28.0,32.6,1.6,111
2011-08-10 15:55:24,31.5,4.5,27.0,32.6,1.7,112
2011-08-10 16:00:24,31.8,5.1,26.6,32.6,1.4,112
2011-08-10 16:05:24,31.9,3.9,28.0,32.6,1.3,111
2011-08-10 16:10:24,31.3,6.5,24.8,32.6,1.6,111
2011-08-10 16:15:24,31.3,6.7,24.6,32.6,1.6,112
2011-08-10 16:20:24,31.1,5.7,25.4,32.6,1.7,111
2011-08-10 16:25:24,31.2,5.3,25.9,32.6,2.0,112
2011-08-10 16:30:24,30.9,4.5,26.4,32.6,2.0,112
2011-08-10 16:35:24,30.7,5.2,25.6,32.6,2.3,111
2011-08-10 16:40:24,30.9,3.9,27.0,32.6,2.3,111
2011-08-10 16:45:24,30.7,2.1,28.6,32.6,2.3,111
2011-08-10 16:50:24,30.3,4.1,26.2,32.6,2.3,112
2011-08-10 16:55:24,30.5,3.0,27.5,32.6,2.3,111
2011-08-10 17:00:24,30.2,2.9,27.3,32.6,2.3,111
2011-08-10 17:05:24,29.6,4.7,24.9,32.6,2.3,112
2011-08-10 17:10:24,28.9,9.2,19.7,32.6,2.3,111
2011-08-10 17:15:24,27.1,9.0,18.0,32.6,2.3,112
2011-08-10 17:20:24,25.6,9.0,16.6,32.5,2.3,111
2011-08-10 17:25:24,24.5,9.7,14.8,32.5,2.3,112
2011-08-10 17:30:24,23.9,10.4,13.5,32.6,2.3,112
2011-08-10 17:35:24,23.8,8.3,15.5,32.6,2.3,111
2011-08-10 17:40:24,24.0,7.8,16.1,32.6,2.3,112
2011-08-10 17:45:24,24.0,7.4,16.6,32.6,2.3,111
2011-08-10 17:50:24,23.9,7.0,16.9,32.6,2.3,112
2011-08-10 17:55:24,25.1,3.4,21.6,32.6,2.3,111
2011-08-10 18:00:24,27.7,5.9,21.8,32.6,2.3,112
2011-08-10 18:05:24,29.3,4.8,24.5,32.6,2.3,111
2011-08-10 18:10:24,30.2,4.8,25.4,32.6,2.3,112
2011-08-10 18:15:24,30.8,3.2,27.6,32.6,2.3,111
2011-08-10 18:20:24,30.7,3.4,27.3,32.6,2.3,112
2011-08-10 18:25:24,30.5,1.0,29.5,32.6,2.3,111
2011-08-10 18:30:24,29.6,1.0,28.6,32.5,2.3,111
2011-08-10 18:35:24,29.1,0.9,28.2,32.6,2.3,111
2011-08-10 18:40:24,28.9,2.3,26.6,32.6,2.3,111
2011-08-10 18:45:24,28.7,1.1,27.5,32.5,2.3,112
2011-08-10 18:50:24,28.3,1.5,26.9,32.5,2.3,111
2011-08-10 18:55:24,28.2,1.4,26.8,32.5,2.3,111
2011-08-10 19:00:24,27.8,0.7,27.1,32.5,2.3,111
2011-08-10 19:05:24,27.4,1.8,25.6,32.5,2.3,111
2011-08-10 19:10:24,27.4,1.0,26.4,32.4,2.3,111
2011-08-10 19:15:24,27.1,0.7,26.4,32.4,2.3,111
2011-08-10 19:20:24,26.8,1.4,25.4,32.4,2.3,111
2011-08-10 19:25:24,26.6,1.6,25.0,32.4,2.3,111
2011-08-10 19:30:24,26.5,1.6,24.9,32.3,2.3,112
2011-08-10 19:35:24,26.3,1.4,24.9,32.3,2.3,111
2011-08-10 19:40:24,26.2,1.5,24.7,32.3,2.3,111
2011-08-10 19:45:24,26.1,1.6,24.5,32.3,2.3,110
2011-08-10 20:15:03,25.8,0.5,25.3,31.6,2.3,18
2011-08-10 20:20:03,25.8,0.9,24.9,31.4,2.3,112
2011-08-10 20:25:03,25.7,2.0,23.7,31.2,2.3,111
2011-08-10 20:30:03,25.7,2.3,23.4,30.8,2.3,111
2011-08-10 20:35:03,25.6,0.9,24.7,30.2,2.3,111
2011-08-10 20:40:03,25.5,0.5,25.0,29.2,2.3,111
2011-08-10 20:45:03,25.0,0.6,24.4,27.7,2.4,111
2011-08-10 20:50:03,25.5,0.9,24.6,24.8,2.3,111
2011-08-10 20:55:03,25.4,2.3,23.0,20.4,2.3,111
2011-08-10 21:00:03,25.4,3.9,21.5,15.2,2.3,112
2011-08-10 21:05:03,25.3,4.6,20.7,10.4,2.3,112
2011-08-10 21:10:03,25.3,4.0,21.3,6.7,2.3,112
2011-08-10 21:15:03,25.4,3.5,21.9,4.0,2.3,111
2011-08-10 21:20:03,25.4,3.0,22.4,2.3,2.3,111
2011-08-10 21:25:03,25.4,2.9,22.5,1.3,2.3,111
2011-08-10 21:30:03,25.5,3.2,22.3,0.8,2.3,111
2011-08-10 21:35:03,25.5,3.2,22.3,0.5,2.3,111
2011-08-10 21:40:03,25.6,4.1,21.5,0.3,2.3,112
2011-08-10 21:45:03,24.8,5.5,19.4,0.3,2.2,112
2011-08-10 21:50:03,22.2,5.4,16.8,0.2,2.3,111
2011-08-10 21:55:03,21.3,5.5,15.7,0.2,2.3,112
2011-08-10 22:00:03,21.0,5.5,15.5,0.2,2.3,112
2011-08-10 22:05:03,20.8,4.8,16.0,0.2,2.3,111
2011-08-10 22:10:03,20.8,4.6,16.2,0.1,2.3,112
2011-08-10 22:15:03,20.7,4.2,16.5,0.1,2.3,111
2011-08-10 22:20:03,20.7,5.3,15.4,0.1,2.3,112
2011-08-10 22:25:03,20.7,5.4,15.3,0.1,2.3,112
2011-08-10 22:30:03,20.7,5.2,15.4,0.1,2.3,111
2011-08-10 22:35:04,20.7,5.0,15.7,0.1,2.2,112
2011-08-10 22:40:04,20.4,4.5,15.8,0.1,2.3,111
2011-08-10 22:45:04,20.7,4.4,16.4,0.1,2.3,112
2011-08-10 22:50:04,20.7,5.1,15.6,0.2,2.2,112
2011-08-10 22:55:04,20.7,4.7,16.0,0.2,2.1,112
2011-08-10 23:00:04,20.7,4.9,15.8,0.2,2.1,112
2011-08-10 23:05:04,20.3,5.6,14.7,0.2,2.1,111
2011-08-10 23:10:04,20.7,4.6,16.1,0.2,2.1,112
2011-08-10 23:15:04,20.7,3.0,17.7,0.2,2.1,111
2011-08-10 23:20:04,20.8,1.6,19.2,0.2,2.2,111
2011-08-10 23:25:04,22.9,0.0,22.8,0.3,2.3,112
2011-08-10 23:30:04,24.6,-1.3,25.9,0.3,2.3,111
2011-08-10 23:35:04,25.0,-1.3,26.3,0.3,2.3,112
2011-08-10 23:40:04,25.1,-1.4,26.5,0.3,2.2,112
2011-08-10 23:45:04,25.2,-0.9,26.1,0.2,2.1,112
2011-08-10 23:50:04,25.2,0.8,24.4,0.3,2.1,110
2011-08-10 23:55:04,25.3,3.3,22.0,0.2,2.2,112
